Location: Ecklingerode
(51.5036°N, 10.3122°E)
Time: 14:28:50
(UTC+00:00)

Cosmos 2263 Rocket - Pass Details

Date: 29 October 2020
Orbit: 822 x 850 km, 71.0° (Epoch: 28 November)

Event Time Altitude Azimuth Distance (km) Brightness Sun altitude
Rises 16:52:26 0° 330° (NNW) 3,419 5.6 -9.2°
Reaches altitude 10° 16:55:23 10° 344° (NNW) 2,484 4.7 -9.6°
Maximum altitude 16:59:57 24° 38° (NE) 1,695 3.4 -10.4°
Enters shadow 17:03:28 14° 83° (E) 2,195 3.7 -10.9°
